THOR AGENA D R/B, 815

Orbit data source: Space-Track

THOR AGENA D R/B, 815 is space debris in SSO originally from a launch on Thu, 18 Jun 1964 UTC launched from the Air Force Western Test Range (AFWTR). Debris objects in space refer to the collection of defunct objects orbiting the Earth. Examples of debris include non-operational satellites, rocket bodies, and fragments generated from explosions, collisions, or faulty payload assembly.

Loading next visibility...
Identifier
815, 1964-031C
Orbit
SSO
Country
Flag of USUS
Related business
Manufacturer
LMSC
Mission
Spacecraft
Bus & Motor
AGENA D, Unknown motor
Mass
600 kg wet, 600 kg dry
Launch date (UTC)
1964-06-18 (62 years ago)
Launch vehicle
Unknown
Launch site
Air Force Western Test Range (AFWTR)
Object type
Payload
Rocket body
Debris
Shape & HBR
CYL, 1.1 m
Radar Cross Section
Large (>1 m²)

Expand to show TLE details & history
Last TLE update: 14 hours ago

TLE from 14 hours ago
0 THOR AGENA D R/B
1 00815U 64031C   26263.44415853  .00000088  00000-0  57028-4 0  9993
2 00815  99.8328 225.6757 0012128  32.8497 327.3432 14.28535186234608
Epoch: 2026-09-20T10:39Z
TLE epoch observation values (Epoch: 2026-09-20T10:39:35.296Z)
Latitude
-0.00005°
Longitude
66.44039°
Altitude
792.195 km
Speed
7.461 km/s
True Right ascension
15h 02m 42s
True Declination
0° 00' 00"
Sunlit
Object was in daylight at epoch
Visualization orbit readout
Latitude
Unknown
Longitude
Unknown
Altitude
Unknown
Speed
Unknown
Apparent Right ascension
Unknown
Apparent Declination
Unknown
Sunlit
N/A
Visualization observer readout
Local Sidereal Time
18:00:41
Azimuth
Unknown
Elevation
Unknown
Doppler factor
Unknown
Orbital elements
Apogee altitude
802.534 km
Perigee altitude
785.138 km
Semi-major axis
7,171.973 km
Eccentricity
0.00121
Inclination
99.8328°
RAAN
225.6757°
Arg. of periapsis
32.8497°
True anomaly
327.26811°
Mean anomaly
327.3432°
Eccentric anomaly
327.30567°
Mean motion
3.57343 °/min
Orbital period
100.74 mins
BSTAR
0.000057028
Loading maneuver chart data...
Computing Atmospheric mass density...
Loading historical data...
Loading historical data...
Loading historical data...
Loading historical data...
Loading historical data...
Loading historical data...
Loading historical data...
Other satellites on launch #31 in the year 1964 (1964-06-18 UTC)

Documentation

Showing up to 5 results
|